Location: Unspecified
(0.0000°N, 0.0000°E)
Time: 21:15:45
(UTC+00:00)

Courier 1B - Pass Details

Date: 24 September 2023
Orbit: 962 x 1208 km, 28.3° (Epoch: 06 October)

Event Time Altitude Azimuth Distance (km) Brightness Sun altitude
Rises 08:33:55 0° 224° (SW) 3,812 10.3 40.4°
Reaches altitude 10° 08:36:50 10° 215° (SW) 2,896 9.8 41.2°
Maximum altitude 08:43:15 35° 151° (SSE) 1,712 9.6 42.8°
Drops below altitude 10° 08:50:00 10° 87° (E) 3,056 11.2 44.5°
Sets 08:53:09 0° 79° (ENE) 4,047 11.5 45.2°
